Date String (YYYY-MM-DD hh:mm:ss) UTC,Instrument flags,Ambient pressure (hPa),Sample flow (lpm),Bypass flow (lpm),Sample temperature (°C),Ambient temperature (°C),ASC tube jacket temperature (°C),LED temperature (°C),Box temperature (°C),Sample RH (%),Span deviation,Mass concentration (μg/m³),Mass concentration (μg/m³),Mass concentration (μg/m³)
DateTimeUTC,F1_M11,P_M11,Q1_M11,Q2_M11,T1_M11,T2_M11,T3_M11,T4_M11,T5_M11,U1_M11,ZSPAN_M11,X2_M11,X0_M11,X1_M11
2022-12-31 03:00:00,,0815.4,4.97,0.00,21.6,19.9,00.0,30.5,23.1,10.5,0000.0,0001.13,0001.59,0000.99
2022-12-31 03:01:00,,0815.3,4.99,0.00,21.5,19.9,00.0,30.5,23.0,10.3,0000.0,0001.11,0001.54,0000.98
2022-12-31 03:02:00,,0815.2,5.05,0.00,21.5,19.8,00.0,30.5,23.0,10.3,0000.0,0001.13,0001.58,0001.00
2022-12-31 03:03:00,,0815.2,4.99,0.00,21.5,19.8,00.0,30.5,23.0,10.3,0000.0,0001.14,0002.05,0001.01
2022-12-31 03:04:00,,0815.1,4.96,0.00,21.5,19.9,00.0,30.4,23.1,10.3,0000.0,0001.15,0003.26,0001.01
2022-12-31 03:05:00,,0815.0,5.02,0.00,21.5,20.0,00.0,30.4,23.1,10.3,0000.0,0001.18,0003.35,0001.01
2022-12-31 03:06:00,,0814.9,5.00,0.00,21.5,20.1,00.0,30.4,23.1,10.3,0000.0,0001.23,0003.50,0001.04
2022-12-31 03:07:00,,0814.9,5.01,0.00,21.5,20.1,00.0,30.4,23.1,10.3,0000.0,0001.28,0003.59,0001.07
2022-12-31 03:08:00,,0815.1,4.99,0.00,21.5,20.1,00.0,30.4,23.1,10.3,0000.0,0001.35,0003.68,0001.12
2022-12-31 03:09:00,,0815.0,4.97,0.00,21.5,20.1,00.0,30.4,23.1,10.3,0000.0,0001.39,0003.98,0001.15
2022-12-31 03:10:00,,0814.8,5.00,0.00,21.5,20.6,00.0,30.4,23.3,10.3,0000.0,0001.40,0004.13,0001.16
2022-12-31 03:11:00,,0814.8,5.03,0.00,21.6,21.8,00.0,30.3,23.6,10.7,0000.0,0001.36,0004.06,0001.14
2022-12-31 03:12:00,,0815.0,4.99,0.00,21.8,22.4,00.0,30.4,23.8,10.7,0000.0,0001.29,0003.98,0001.08
2022-12-31 03:13:00,,0814.8,4.97,0.00,21.8,21.9,00.0,30.5,23.7,10.2,0000.0,0001.25,0003.90,0001.04
2022-12-31 03:14:00,,0815.0,5.01,0.00,21.8,21.4,00.0,30.5,23.6,10.2,0000.0,0001.20,0003.82,0001.00
2022-12-31 03:15:00,,0814.7,5.02,0.00,21.8,21.1,00.0,30.5,23.6,10.3,0000.0,0001.18,0002.14,0000.98
2022-12-31 03:16:00,,0815.0,5.02,0.00,21.8,20.9,00.0,30.5,23.5,10.9,0000.0,0001.07,0001.94,0000.92
2022-12-31 03:17:00,,0814.9,4.98,0.00,21.8,20.8,00.0,30.6,23.5,11.3,0000.0,0000.96,0001.74,0000.85
2022-12-31 03:18:00,,0814.8,4.97,0.00,21.8,20.7,00.0,30.6,23.4,11.6,0000.0,0000.86,0001.56,0000.77
2022-12-31 03:19:00,,0814.8,5.01,0.00,21.8,20.7,00.0,30.6,23.4,11.9,0000.0,0000.75,0001.45,0000.68
2022-12-31 03:20:00,,0814.7,5.03,0.00,21.8,20.6,00.0,30.6,23.4,12.0,0000.0,0000.66,0001.16,0000.58
2022-12-31 03:21:00,,0814.4,5.02,0.00,21.7,20.5,00.0,30.6,23.3,12.3,0000.0,0000.61,0000.91,0000.52
2022-12-31 03:22:00,,0814.3,4.97,0.00,21.7,20.4,00.0,30.6,23.3,12.2,0000.0,0000.55,0000.85,0000.45
2022-12-31 03:23:00,,0814.4,4.99,0.00,21.7,20.3,00.0,30.5,23.2,12.4,0000.0,0000.54,0000.86,0000.43
2022-12-31 03:24:00,,0814.4,4.99,0.00,21.7,20.2,00.0,30.5,23.2,12.4,0000.0,0000.47,0000.78,0000.37
2022-12-31 03:25:00,,0814.5,5.01,0.00,21.6,20.2,00.0,30.5,23.2,12.1,0000.0,0000.38,0000.65,0000.29
2022-12-31 03:26:00,,0814.5,5.03,0.00,21.6,20.6,00.0,30.5,23.3,12.2,0000.0,0000.31,0000.58,0000.22
2022-12-31 03:27:00,,0814.8,4.98,0.00,21.8,21.6,00.0,30.5,23.6,12.2,0000.0,0000.28,0000.54,0000.19
2022-12-31 03:28:00,,0814.7,4.97,0.00,21.9,22.6,00.0,30.5,23.9,12.0,0000.0,0000.27,0000.50,0000.18
2022-12-31 03:29:00,,0814.6,5.02,0.00,22.0,22.5,00.0,30.6,24.0,12.2,0000.0,0000.27,0000.76,0000.18
2022-12-31 03:30:00,,0814.9,5.02,0.00,22.0,21.9,00.0,30.6,23.9,11.8,0000.0,0000.28,0001.26,0000.19
2022-12-31 03:31:00,,0815.0,4.97,0.00,22.0,21.5,00.0,30.7,23.8,11.4,0000.0,0000.30,0001.25,0000.21
2022-12-31 03:32:00,,0815.0,4.98,0.00,21.9,21.0,00.0,30.7,23.6,11.1,0000.0,0000.30,0001.23,0000.23
2022-12-31 03:33:00,,0814.9,4.99,0.00,21.9,20.6,00.0,30.7,23.4,11.0,0000.0,0000.34,0001.27,0000.26
2022-12-31 03:34:00,,0814.7,5.00,0.00,21.8,20.4,00.0,30.7,23.4,11.0,0000.0,0000.36,0001.27,0000.29
2022-12-31 03:35:00,,0815.1,5.04,0.00,21.8,20.3,00.0,30.7,23.3,11.2,0000.0,0000.37,0001.26,0000.31
2022-12-31 03:36:00,,0814.7,5.01,0.00,21.7,20.1,00.0,30.7,23.2,10.9,0000.0,0000.40,0001.31,0000.34
2022-12-31 03:37:00,,0814.9,4.99,0.00,21.7,20.0,00.0,30.7,23.2,11.1,0000.0,0000.44,0001.38,0000.37
2022-12-31 03:38:00,,0814.5,4.99,0.00,21.6,20.0,00.0,30.7,23.1,11.2,0000.0,0000.49,0001.62,0000.39
2022-12-31 03:39:00,,0814.5,4.98,0.00,21.6,19.9,00.0,30.6,23.0,10.6,0000.0,0000.53,0001.90,0000.42
2022-12-31 03:40:00,,0814.5,5.02,0.00,21.5,19.8,00.0,30.6,23.0,10.5,0000.0,0000.60,0001.70,0000.49
2022-12-31 03:41:00,,0814.5,5.03,0.00,21.4,19.5,00.0,30.6,22.9,10.4,0000.0,0000.69,0001.37,0000.56
2022-12-31 03:42:00,,0814.4,5.01,0.00,21.4,19.4,00.0,30.5,22.8,10.4,0000.0,0000.76,0001.52,0000.62
2022-12-31 03:43:00,,0814.6,4.98,0.00,21.4,20.0,00.0,30.5,22.9,10.9,0000.0,0000.80,0001.60,0000.64
2022-12-31 03:44:00,,0814.5,4.98,0.00,21.5,21.3,00.0,30.4,23.3,11.0,0000.0,0000.79,0001.58,0000.64
2022-12-31 03:45:00,,0814.4,5.02,0.00,21.7,22.5,00.0,30.4,23.7,10.7,0000.0,0000.81,0001.63,0000.66
2022-12-31 03:46:00,,0814.6,5.00,0.00,21.8,22.5,00.0,30.5,23.8,10.6,0000.0,0000.86,0001.73,0000.68
2022-12-31 03:47:00,,0814.8,4.96,0.00,21.8,21.8,00.0,30.5,23.7,10.2,0000.0,0000.91,0001.79,0000.71
2022-12-31 03:48:00,,0814.5,4.99,0.00,21.8,21.3,00.0,30.6,23.5,10.3,0000.0,0000.93,0001.83,0000.73
2022-12-31 03:49:00,,0814.4,5.02,0.00,21.7,20.9,00.0,30.6,23.4,10.3,0000.0,0000.95,0001.75,0000.77
2022-12-31 03:50:00,,0814.4,5.04,0.00,21.7,20.6,00.0,30.6,23.4,10.4,0000.0,0000.98,0001.49,0000.78
2022-12-31 03:51:00,,0814.4,4.99,0.00,21.7,20.3,00.0,30.6,23.3,10.6,0000.0,0000.94,0001.47,0000.75
2022-12-31 03:52:00,,0814.4,4.98,0.00,21.6,20.2,00.0,30.6,23.2,11.0,0000.0,0000.87,0001.37,0000.68
2022-12-31 03:53:00,,0814.4,4.98,0.00,21.6,20.0,00.0,30.6,23.1,11.0,0000.0,0000.81,0001.28,0000.63
2022-12-31 03:54:00,,0814.4,4.99,0.00,21.6,19.8,00.0,30.6,23.0,11.0,0000.0,0000.77,0001.21,0000.59
2022-12-31 03:55:00,,0814.3,5.02,0.00,21.5,19.7,00.0,30.6,23.0,10.8,0000.0,0000.83,0001.32,0000.63
2022-12-31 03:56:00,,0814.3,5.00,0.00,21.5,19.6,00.0,30.5,22.9,10.7,0000.0,0000.89,0001.37,0000.68
2022-12-31 03:57:00,,0814.6,4.96,0.00,21.4,19.6,00.0,30.5,22.9,10.6,0000.0,0000.93,0001.37,0000.74
2022-12-31 03:58:00,,0814.4,4.98,0.00,21.4,19.7,00.0,30.5,23.0,10.6,0000.0,0000.99,0001.52,0000.81
2022-12-31 03:59:00,,0814.3,5.02,0.00,21.4,19.8,00.0,30.5,23.0,10.6,0000.0,0001.05,0001.60,0000.88
